TimeCDT,TemperatureF,Dew PointF,Humidity,Sea Level PressureIn,VisibilityMPH,Wind Direction,Wind SpeedMPH,Gust SpeedMPH,PrecipitationIn,Events,Conditions,WindDirDegrees,DateUTC
12:15 AM,50.0,42.8,76,29.95,10.0,NNE,9.2,-,N/A,,Clear,20,2013-05-22 05:15:00
12:35 AM,48.2,41.0,76,29.96,10.0,North,8.1,-,N/A,,Clear,10,2013-05-22 05:35:00
12:55 AM,48.2,41.0,76,29.96,10.0,North,9.2,-,N/A,,Clear,10,2013-05-22 05:55:00
1:15 AM,48.2,41.0,76,29.96,10.0,North,6.9,-,N/A,,Clear,10,2013-05-22 06:15:00
1:35 AM,46.4,41.0,81,29.96,10.0,North,6.9,-,N/A,,Clear,360,2013-05-22 06:35:00
1:55 AM,44.6,41.0,87,29.96,10.0,North,8.1,-,N/A,,Clear,360,2013-05-22 06:55:00
2:15 AM,44.6,41.0,87,29.96,10.0,North,6.9,-,N/A,,Clear,360,2013-05-22 07:15:00
2:35 AM,44.6,41.0,87,29.96,10.0,North,8.1,-,N/A,,Clear,360,2013-05-22 07:35:00
2:55 AM,44.6,39.2,81,29.96,10.0,North,8.1,-,N/A,,Clear,360,2013-05-22 07:55:00
3:15 AM,44.6,41.0,87,29.95,10.0,North,8.1,-,N/A,,Clear,360,2013-05-22 08:15:00
3:35 AM,44.6,41.0,87,29.95,10.0,North,5.8,-,N/A,,Clear,360,2013-05-22 08:35:00
3:55 AM,44.6,41.0,87,29.95,10.0,North,6.9,-,N/A,,Clear,360,2013-05-22 08:55:00
4:15 AM,44.6,41.0,87,29.95,10.0,North,11.5,-,N/A,,Clear,350,2013-05-22 09:15:00
4:35 AM,44.6,42.8,93,29.96,10.0,North,12.7,-,N/A,,Clear,350,2013-05-22 09:35:00
4:55 AM,44.6,41.0,87,29.96,10.0,North,12.7,-,N/A,,Clear,350,2013-05-22 09:55:00
5:15 AM,44.6,41.0,87,29.96,10.0,North,11.5,-,N/A,,Clear,360,2013-05-22 10:15:00
5:35 AM,42.8,39.2,87,29.97,10.0,North,10.4,-,N/A,,Clear,360,2013-05-22 10:35:00
5:55 AM,42.8,39.2,87,29.98,10.0,North,9.2,-,N/A,,Clear,10,2013-05-22 10:55:00
6:15 AM,44.6,37.4,76,29.98,10.0,North,9.2,-,N/A,,Clear,10,2013-05-22 11:15:00
6:35 AM,44.6,37.4,76,29.99,10.0,North,9.2,-,N/A,,Clear,10,2013-05-22 11:35:00
6:55 AM,44.6,35.6,71,29.99,10.0,NNE,9.2,-,N/A,,Clear,20,2013-05-22 11:55:00
7:15 AM,44.6,37.4,76,30.00,10.0,NNE,8.1,-,N/A,,Clear,20,2013-05-22 12:15:00
7:35 AM,46.4,37.4,71,30.01,10.0,NNE,9.2,-,N/A,,Clear,20,2013-05-22 12:35:00
7:55 AM,48.2,37.4,66,30.01,10.0,NE,9.2,-,N/A,,Clear,40,2013-05-22 12:55:00
8:15 AM,50.0,39.2,66,30.01,10.0,NNE,9.2,-,N/A,,Clear,30,2013-05-22 13:15:00
8:35 AM,50.0,39.2,66,30.02,10.0,NNE,11.5,-,N/A,,Clear,30,2013-05-22 13:35:00
8:55 AM,53.6,41.0,62,30.02,10.0,NE,10.4,-,N/A,,Clear,40,2013-05-22 13:55:00
9:15 AM,55.4,41.0,58,30.02,10.0,NNE,11.5,-,N/A,,Clear,30,2013-05-22 14:15:00
9:35 AM,55.4,41.0,58,30.02,10.0,NNE,11.5,-,N/A,,Clear,30,2013-05-22 14:35:00
9:55 AM,57.2,41.0,55,30.02,10.0,NNE,11.5,-,N/A,,Clear,30,2013-05-22 14:55:00
10:15 AM,57.2,41.0,55,30.02,10.0,NNE,13.8,-,N/A,,Clear,20,2013-05-22 15:15:00
10:35 AM,57.2,41.0,55,30.02,10.0,NNE,16.1,-,N/A,,Clear,30,2013-05-22 15:35:00
10:55 AM,59.0,41.0,51,30.01,7.0,NE,17.3,23.0,N/A,,Clear,50,2013-05-22 15:55:00
11:15 AM,60.8,39.2,45,30.01,10.0,NE,19.6,23.0,N/A,,Clear,40,2013-05-22 16:15:00
11:35 AM,62.6,41.0,45,30.02,10.0,NE,17.3,24.2,N/A,,Clear,40,2013-05-22 16:35:00
11:55 AM,62.6,41.0,45,30.02,10.0,NE,18.4,25.3,N/A,,Clear,40,2013-05-22 16:55:00
12:15 PM,62.6,41.0,45,30.01,10.0,NE,19.6,-,N/A,,Clear,40,2013-05-22 17:15:00
12:35 PM,64.4,41.0,42,30.02,10.0,NNE,17.3,-,N/A,,Clear,30,2013-05-22 17:35:00
12:55 PM,64.4,41.0,42,30.02,10.0,NE,18.4,23.0,N/A,,Clear,40,2013-05-22 17:55:00
1:15 PM,66.2,42.8,43,30.01,10.0,NE,17.3,21.9,N/A,,Clear,40,2013-05-22 18:15:00
1:35 PM,66.2,44.6,46,30.01,10.0,NNE,18.4,24.2,N/A,,Clear,20,2013-05-22 18:35:00
1:55 PM,68.0,44.6,43,30.02,10.0,NNE,16.1,24.2,N/A,,Clear,30,2013-05-22 18:55:00
2:15 PM,68.0,46.4,46,30.02,10.0,NNE,16.1,24.2,N/A,,Clear,30,2013-05-22 19:15:00
2:35 PM,68.0,44.6,43,30.01,10.0,NNE,17.3,21.9,N/A,,Clear,30,2013-05-22 19:35:00
2:55 PM,69.8,44.6,40,30.01,10.0,NE,17.3,25.3,N/A,,Clear,50,2013-05-22 19:55:00
3:15 PM,69.8,44.6,40,30.01,10.0,NNE,17.3,23.0,N/A,,Clear,30,2013-05-22 20:15:00
3:35 PM,69.8,44.6,40,30.01,10.0,NE,16.1,24.2,N/A,,Clear,40,2013-05-22 20:35:00
3:55 PM,69.8,44.6,40,30.01,10.0,NE,15.0,21.9,N/A,,Partly Cloudy,40,2013-05-22 20:55:00
4:15 PM,71.6,46.4,41,30.01,10.0,NNE,15.0,21.9,N/A,,Clear,30,2013-05-22 21:15:00
4:35 PM,71.6,44.6,38,30.01,10.0,NNE,13.8,-,N/A,,Scattered Clouds,30,2013-05-22 21:35:00
4:55 PM,71.6,44.6,38,30.01,10.0,NNE,13.8,19.6,N/A,,Scattered Clouds,30,2013-05-22 21:55:00
5:15 PM,71.6,44.6,38,30.01,10.0,NNE,17.3,-,N/A,,Scattered Clouds,20,2013-05-22 22:15:00
5:35 PM,71.6,44.6,38,30.01,10.0,NNE,11.5,-,N/A,,Scattered Clouds,20,2013-05-22 22:35:00
5:55 PM,68.0,46.4,46,30.02,10.0,North,15.0,24.2,N/A,,Mostly Cloudy,10,2013-05-22 22:55:00
6:15 PM,71.6,46.4,41,30.02,10.0,NNE,16.1,20.7,N/A,,Mostly Cloudy,30,2013-05-22 23:15:00
6:35 PM,68.0,46.4,46,30.02,10.0,NNE,15.0,-,N/A,,Mostly Cloudy,30,2013-05-22 23:35:00
6:55 PM,68.0,48.2,49,30.03,10.0,NNE,13.8,-,N/A,,Scattered Clouds,20,2013-05-22 23:55:00
7:15 PM,68.0,50.0,52,30.03,10.0,North,16.1,23.0,N/A,,Clear,360,2013-05-23 00:15:00
7:35 PM,66.2,48.2,52,30.04,10.0,NNE,12.7,-,N/A,,Partly Cloudy,20,2013-05-23 00:35:00
7:55 PM,66.2,48.2,52,30.05,10.0,North,11.5,-,N/A,,Partly Cloudy,10,2013-05-23 00:55:00
8:15 PM,64.4,50.0,59,30.06,10.0,NNE,9.2,-,N/A,,Clear,20,2013-05-23 01:15:00
8:35 PM,62.6,48.2,59,30.06,10.0,NNE,10.4,-,N/A,,Partly Cloudy,20,2013-05-23 01:35:00
8:55 PM,62.6,50.0,63,30.07,10.0,NNE,10.4,-,N/A,,Scattered Clouds,20,2013-05-23 01:55:00
9:15 PM,59.0,50.0,72,30.08,10.0,NE,9.2,-,N/A,,Partly Cloudy,40,2013-05-23 02:15:00
9:35 PM,59.0,48.2,67,30.10,10.0,ENE,9.2,-,N/A,,Mostly Cloudy,60,2013-05-23 02:35:00
9:55 PM,59.0,48.2,67,30.11,10.0,ENE,9.2,-,N/A,,Overcast,60,2013-05-23 02:55:00
10:15 PM,59.0,46.4,63,30.12,10.0,ENE,11.5,-,N/A,,Mostly Cloudy,60,2013-05-23 03:15:00
10:35 PM,57.2,46.4,67,30.13,10.0,ENE,10.4,-,N/A,,Mostly Cloudy,60,2013-05-23 03:35:00
10:55 PM,57.2,44.6,63,30.14,10.0,ENE,11.5,-,N/A,,Partly Cloudy,70,2013-05-23 03:55:00
11:15 PM,55.4,46.4,72,30.15,10.0,NE,9.2,-,N/A,,Clear,50,2013-05-23 04:15:00
11:35 PM,53.6,46.4,77,30.16,10.0,NE,10.4,-,N/A,,Clear,50,2013-05-23 04:35:00
11:55 PM,53.6,46.4,77,30.17,10.0,NE,10.4,-,N/A,,Clear,50,2013-05-23 04:55:00